CAPE
0 0 0 0 0 0 0 0 0 0 0 0 0 0 0 0 0 0 0 0 0 0 0 0 0 0 122 346 109 133 484 355 48 1 20 23 128 171 112 721 535 612 411 418 220
0 0 0 0 0 0 0 0 0 0 0 0 0 0 0 0 0 0 0 0 0 0 0 0 0 0 74 150 129 215 30 60 58 0 46 8 9 40 66 139 591 462 609 353 293
0 0 0 0 0 0 0 0 0 0 0 0 0 0 0 0 0 0 0 0 0 0 0 0 0 0 29 27 77 129 48 0 45 3 74 31 16 57 30 69 624 604 542 500 352
0 0 0 0 0 0 0 0 0 0 0 0 0 0 0 0 0 0 0 0 0 0 0 0 0 0 0 1 19 91 12 6 28 54 112 83 99 26 13 60 609 573 483 524 469
0 0 0 0 0 0 0 0 0 0 0 0 0 2 0 0 0 0 0 0 0 0 0 0 0 0 0 0 5 30 65 21 31 102 152 6 30 0 33 75 505 569 508 468 524
0 0 0 0 0 0 0 0 0 0 0 0 1 1 0 0 0 0 0 0 0 0 0 0 0 0 0 0 5 30 51 119 148 84 187 177 165 19 7 32 323 489 500 508 534
0 0 0 0 0 0 0 0 0 0 0 1 3 0 0 0 0 0 0 0 0 0 0 0 0 0 0 0 0 17 27 50 58 41 46 8 266 185 1 128 187 368 485 403 436
0 0 0 0 0 0 0 0 0 0 0 0 2 0 0 0 0 0 0 0 0 0 0 0 0 0 0 0 9 14 28 23 36 89 31 0 27 312 131 295 370 350 415 455 327
0 0 0 0 0 0 0 0 0 0 0 1 0 0 0 0 0 0 0 0 0 0 0 0 0 0 0 0 7 7 9 30 64 67 32 0 0 0 391 274 453 433 391 371 476
0 0 0 0 0 0 0 0 0 0 0 0 0 0 0 0 0 0 0 0 0 0 0 0 0 0 0 0 0 12 1 27 40 25 5 19 0 15 23 442 423 550 473 390 432
0 0 0 0 0 0 0 0 0 0 0 0 0 0 0 0 0 0 0 0 0 0 0 0 0 0 0 0 0 4 3 0 31 80 10 6 8 29 7 29 515 569 649 501 438
0 0 0 0 0 0 0 0 0 0 0 0 0 0 0 0 0 0 0 0 0 0 0 0 0 0 0 0 0 0 0 0 0 49 16 15 13 6 35 21 425 636 623 672 528
0 0 0 0 0 0 0 0 0 0 0 0 0 0 0 0 0 0 0 0 0 0 0 0 0 0 0 0 0 0 0 0 2 5 2 2 17 25 9 0 132 564 581 743 718
0 0 0 0 0 0 0 0 0 0 0 0 0 0 0 0 0 0 0 0 0 0 0 0 0 0 0 0 0 0 0 0 3 33 25 31 27 13 24 49 72 337 498 766 810
0 0 0 0 0 0 0 0 0 0 0 0 0 0 0 0 0 0 0 0 0 0 0 0 0 0 0 0 0 0 0 0 0 0 0 4 3 28 19 58 119 249 478 487 794
0 0 0 0 0 0 0 0 0 0 0 0 0 0 0 0 0 0 0 0 0 0 0 0 0 0 0 0 0 0 0 0 0 0 0 0 1 5 5 0 15 79 429 447 692
0 0 0 0 0 0 0 0 0 0 0 0 0 0 0 0 0 0 0 0 0 0 0 0 0 0 0 0 0 0 0 0 0 0 0 0 0 0 6 9 6 52 48 492 585
0 0 0 0 0 0 0 0 0 0 0 0 0 0 0 0 0 0 0 0 0 0 0 0 0 0 0 0 0 0 0 0 0 0 0 0 0 0 0 0 5 46 36 84 365
0 0 0 0 0 0 0 0 0 0 0 0 0 0 0 0 0 0 0 0 0 0 0 0 0 0 0 0 0 0 0 0 0 0 0 0 0 0 0 0 0 15 68 63 159
0 0 0 0 0 0 0 0 0 0 0 0 0 0 0 0 0 0 0 0 0 0 0 0 0 0 0 0 0 0 0 0 0 0 0 0 0 0 0 0 0 0 12 41 80
0 0 0 0 0 0 0 0 0 0 0 0 0 0 0 1 0 0 0 0 0 1 0 0 0 0 0 0 0 0 0 0 0 0 0 0 0 0 0 0 0 0 0 0 115
0 0 0 0 0 0 0 0 0 3 0 0 9 3 8 2 6 15 5 0 0 0 0 0 0 0 0 0 0 0 0 0 0 0 0 0 0 0 0 0 0 0 0 0 12
0 0 1 0 0 0 0 0 1 15 7 5 25 15 5 0 7 27 14 0 0 0 0 0 0 0 0 0 0 0 0 0 0 0 0 0 0 0 0 0 0 0 0 0 0
4 3 0 0 0 0 3 2 9 12 3 10 22 39 37 9 0 1 1 0 0 0 0 0 0 0 0 0 0 0 0 0 0 0 0 0 0 0 0 0 0 0 0 0 9
6 5 9 7 0 0 10 9 22 34 28 0 18 2 9 26 11 0 0 0 0 0 0 0 0 0 0 0 3 0 0 0 0 0 0 0 0 0 0 0 0 0 0 0 23
22 8 2 2 13 7 4 0 48 49 55 32 25 9 3 17 2 0 0 0 3 0 0 0 0 0 0 0 0 0 0 0 0 0 0 0 0 0 0 0 0 0 0 0 0
18 4 3 0 6 10 1 3 11 61 93 70 28 44 38 24 20 3 1 0 0 0 0 0 0 0 0 0 0 0 0 0 0 0 0 0 0 0 0 0 0 0 0 0 0
CIN
0 0 0 0 0 0 0 0 0 0 0 0 0 0 0 0 0 0 0 0 0 0 0 0 0 0 -106 -25 -19 -15 -2 -20 -45 -3 -51 -12 -7 -9 -21 -3 -2 -25 -139 -59 -63
0 0 0 0 0 0 0 0 0 0 0 0 0 0 0 0 0 0 0 0 0 0 0 0 0 0 -120 -64 -27 -11 -86 -89 -63 0 -50 -13 -6 -29 -13 -4 -9 -53 -55 -53 -57
0 0 0 0 0 0 0 0 0 0 0 0 0 0 0 0 0 0 0 0 0 0 0 0 0 0 -152 -124 -29 -7 -43 -15 -126 -111 -28 -21 -5 -11 -18 -29 -20 -72 -65 -47 -43
0 0 0 0 0 0 0 0 0 0 0 0 0 0 0 0 0 0 0 0 0 0 0 0 0 0 0 -49 -61 -6 -85 -90 -108 -71 -40 -41 -87 -29 -26 -58 -41 -72 -88 -68 -53
0 0 0 0 0 0 0 0 0 0 0 0 0 0 0 0 0 0 0 0 0 0 0 0 0 0 0 0 -25 -36 -105 -63 -82 -74 -84 -135 -67 0 -74 -30 -39 -68 -61 -56 -44
0 0 0 0 0 0 0 0 0 0 0 0 0 0 0 0 0 0 0 0 0 0 0 0 0 0 0 0 -5 -9 -18 -4 -30 -2 -82 -53 -84 -71 -27 -79 -43 -48 -46 -26 -37
0 0 0 0 0 0 0 0 0 0 0 0 0 0 0 0 0 0 0 0 0 0 0 0 0 0 0 0 0 -6 -10 -14 -47 -9 -4 -2 -30 -30 -8 -1 -50 -50 -35 -16 -2
0 0 0 0 0 0 0 0 0 0 0 0 0 0 0 0 0 0 0 0 0 0 0 0 0 0 0 0 -3 -6 -9 -3 -6 -4 -4 0 -3 -24 -93 -8 -48 -44 -40 -31 -16
0 0 0 0 0 0 0 0 0 0 0 0 0 0 0 0 0 0 0 0 0 0 0 0 0 0 0 0 -3 -5 -4 -4 -4 -4 -5 0 0 0 -10 -4 -37 -32 -17 -39 -26
0 0 0 0 0 0 0 0 0 0 0 0 0 0 0 0 0 0 0 0 0 0 0 0 0 0 0 0 0 -3 -2 -5 -7 -7 -4 -4 0 -4 -5 -2 -7 -43 -25 -18 -35
0 0 0 0 0 0 0 0 0 0 0 0 0 0 0 0 0 0 0 0 0 0 0 0 0 0 0 0 0 -3 -1 0 -3 -3 -11 -3 -27 -11 -44 -39 -4 -26 -17 -46 -33
0 0 0 0 0 0 0 0 0 0 0 0 0 0 0 0 0 0 0 0 0 0 0 0 0 0 0 0 0 0 0 0 0 -5 -23 -2 -11 -15 -12 -4 -1 -25 -19 -26 -3
0 0 0 0 0 0 0 0 0 0 0 0 0 0 0 0 0 0 0 0 0 0 0 0 0 0 0 0 0 0 0 0 -4 -25 -51 -6 -28 -6 -30 0 -1 -9 -22 -13 -7
0 0 0 0 0 0 0 0 0 0 0 0 0 0 0 0 0 0 0 0 0 0 0 0 0 0 0 0 0 0 0 0 -5 -6 -5 -7 -6 -8 -11 -6 -25 -10 -9 -9 -21
0 0 0 0 0 0 0 0 0 0 0 0 0 0 0 0 0 0 0 0 0 0 0 0 0 0 0 0 0 0 0 0 0 0 0 -17 -5 -5 -11 -5 -3 -3 -38 -4 -11
0 0 0 0 0 0 0 0 0 0 0 0 0 0 0 0 0 0 0 0 0 0 0 0 0 0 0 0 0 0 0 0 0 0 0 0 -8 -10 -5 0 -13 -5 -8 -15 -7
0 0 0 0 0 0 0 0 0 0 0 0 0 0 0 0 0 0 0 0 0 0 0 0 0 0 0 0 0 0 0 0 0 0 0 0 0 0 -4 -7 -35 -5 -13 -4 -5
0 0 0 0 0 0 0 0 0 0 0 0 0 0 0 0 0 0 0 0 0 0 0 0 0 0 0 0 0 0 0 0 0 0 0 0 0 0 0 0 -13 -5 -4 -4 -5
0 0 0 0 0 0 0 0 0 0 0 0 0 0 0 0 0 0 0 0 0 0 0 0 0 0 0 0 0 0 0 0 0 0 0 0 0 0 0 0 0 -5 -4 -5 -9
0 0 0 0 0 0 0 0 0 0 0 0 0 0 0 0 0 0 0 0 0 0 0 0 0 0 0 0 0 0 0 0 0 0 0 0 0 0 0 0 0 0 -2 -3 -17
0 0 0 0 0 0 0 0 0 0 0 0 0 0 0 -4 -1 -3 0 0 0 -3 0 0 0 0 0 0 0 0 0 0 0 0 0 0 0 0 0 0 0 0 0 0 -4
0 0 0 0 0 0 -1 0 0 -6 -1 -4 -6 -7 -15 -3 -2 -1 0 -1 0 0 0 0 0 0 0 0 0 0 0 0 0 0 0 0 0 0 0 0 0 0 0 0 -8
0 0 -2 0 -1 0 -1 0 -6 -5 -12 -42 -10 -7 -14 0 -3 0 0 0 0 0 0 0 0 0 0 0 0 0 0 0 0 0 0 0 0 0 0 0 0 0 0 0 0
-2 -1 0 0 0 -2 -6 -4 -6 -6 -7 -36 -15 -4 -4 -9 -2 -1 0 0 0 0 0 0 0 0 0 0 0 0 0 0 0 0 0 0 0 0 0 0 0 0 0 0 -38
-2 -1 -3 0 0 -1 -3 -6 -8 -5 -16 -3 -15 -16 -13 -3 -4 0 0 0 0 0 0 0 0 0 0 0 -7 0 0 0 0 0 0 0 0 0 0 0 0 0 0 0 -16
0 0 -2 -1 -1 -2 -2 -3 -4 -7 -9 -6 -7 -56 -21 -5 -8 0 -4 0 0 0 0 0 0 0 0 0 0 0 0 0 0 0 0 0 0 0 0 0 0 0 0 0 0
-3 -4 -1 -1 0 -1 -2 -3 -5 -5 -4 -4 -11 -5 -6 -7 -5 -7 -6 0 0 0 0 0 0 0 0 0 0 0 0 0 0 0 0 0 0 0 0 0 0 0 0 0 0
Wind_Speed
33 34 34 34 34 34 34 34 33 32 30 29 28 26 26 28 31 30 29 22 17 11 25 27 27 30 29 30 29 26 29 25 16 15 13 19 17 18 17 20 17 14 22 24 27
35 35 36 36 36 36 36 35 35 33 32 32 30 28 27 28 29 33 27 24 31 7 27 26 25 28 32 32 30 27 17 22 18 10 19 11 15 14 15 16 18 23 23 25 28
35 36 36 37 37 37 37 38 37 35 34 33 32 30 29 27 28 28 17 25 21 8 19 24 21 27 32 31 31 30 14 7 20 22 15 9 14 17 14 15 18 23 26 27 26
37 38 38 38 38 38 38 39 38 36 36 34 32 29 26 22 17 15 17 3 16 13 13 22 24 27 35 34 30 30 2 6 24 22 11 12 16 10 17 18 20 22 26 27 24
39 40 40 40 40 40 40 40 38 37 36 31 23 20 17 14 18 11 14 5 10 10 16 25 23 22 32 34 29 30 9 4 14 19 11 18 15 16 16 23 20 23 26 25 23
42 42 43 43 43 43 43 41 39 39 35 27 16 12 14 15 13 10 7 3 5 13 14 18 18 18 25 36 35 29 25 28 20 9 11 9 11 14 15 20 21 23 25 25 23
43 44 45 46 46 46 43 42 41 38 34 29 15 8 12 9 18 6 3 3 5 13 13 15 14 13 17 31 36 36 33 17 24 5 6 6 10 5 8 19 21 22 24 24 22
44 45 46 47 47 47 45 44 41 35 33 27 11 9 21 16 22 27 8 5 5 5 17 15 23 27 27 29 37 38 29 37 15 5 6 3 5 7 13 22 17 18 22 23 23
46 47 47 48 47 45 46 45 40 30 27 17 12 13 27 14 9 11 7 8 7 6 8 13 18 20 24 20 41 34 37 26 24 8 5 9 20 5 15 16 17 16 19 21 22
48 48 49 50 48 46 46 45 29 22 20 16 25 21 23 17 12 11 13 9 10 10 11 12 15 18 21 21 27 21 15 30 24 13 15 18 11 3 18 18 20 17 17 19 21
49 50 50 49 47 46 43 37 40 26 29 35 26 25 27 21 21 10 13 12 12 14 16 15 18 26 30 28 19 37 25 20 21 13 13 31 14 7 9 10 16 14 18 18 21
50 50 51 50 47 45 39 39 36 35 51 39 42 51 47 42 34 17 13 17 18 20 16 16 29 21 19 32 42 42 39 29 29 12 10 18 19 11 11 18 10 16 21 17 22
49 50 51 50 46 38 35 41 40 39 44 50 28 33 29 32 33 22 19 20 21 22 22 23 20 21 21 23 28 25 34 37 26 13 25 12 11 23 8 18 7 17 17 17 23
47 48 48 47 32 38 40 42 41 37 38 40 23 26 25 27 39 29 22 22 24 26 23 24 26 18 21 22 22 27 23 38 39 36 17 13 14 15 12 9 11 12 14 17 23
46 48 40 13 31 34 42 40 39 31 38 16 16 21 20 28 21 31 25 27 29 23 26 27 23 22 21 28 28 42 26 29 38 37 38 25 27 20 15 20 17 15 17 16 20
42 36 43 25 15 17 28 23 32 31 36 23 26 29 28 27 41 31 31 33 34 36 34 45 30 37 29 25 46 41 37 32 32 38 49 44 26 17 19 26 17 18 19 20 19
43 27 20 19 22 34 32 23 33 33 33 30 36 37 38 37 36 44 35 39 39 45 41 42 50 34 40 31 32 36 35 28 24 28 24 24 44 40 15 20 15 21 19 21 19
45 22 18 14 24 30 27 18 33 32 34 37 39 42 39 34 37 36 44 44 43 45 39 39 38 41 31 33 23 26 27 21 25 21 19 36 45 39 43 42 35 18 17 19 20
29 31 18 14 30 24 22 22 29 28 32 40 42 40 36 33 30 36 49 50 45 48 51 42 55 33 50 34 32 27 49 29 43 43 41 43 36 46 46 49 44 40 16 18 22
36 27 16 23 27 20 18 19 23 28 31 39 43 40 45 40 36 31 34 46 43 45 56 56 42 49 35 36 42 55 25 42 47 45 44 39 42 22 37 31 26 37 26 18 22
30 29 24 29 23 16 17 25 31 32 28 34 40 42 41 39 36 36 32 29 23 38 48 59 54 45 45 45 47 43 48 40 45 45 43 37 36 21 24 18 25 21 18 13 19
31 33 29 26 29 22 25 29 30 32 27 28 34 37 35 35 38 36 35 32 29 31 40 48 55 55 50 48 42 43 45 36 39 40 46 39 30 17 19 17 15 20 21 22 20
34 30 26 35 26 31 31 33 33 27 29 26 33 32 34 36 38 34 32 32 35 31 29 29 49 58 54 48 42 55 45 51 41 40 48 42 30 15 14 11 11 14 23 19 26
31 35 29 25 26 29 33 31 28 24 25 30 36 31 33 35 34 34 32 29 34 34 31 32 41 53 56 47 37 41 47 43 53 41 42 45 17 14 11 11 7 7 16 19 22
29 23 18 23 19 13 15 23 29 24 16 24 31 26 32 34 33 32 33 33 29 26 27 33 44 46 52 45 38 37 41 42 43 45 40 37 33 9 10 12 9 6 14 16 14
23 24 24 21 18 14 9 15 21 22 29 34 34 26 31 32 31 34 33 32 29 27 25 27 38 40 48 45 40 40 41 45 44 45 38 42 31 7 5 4 9 5 6 7 10
22 21 21 18 16 14 12 10 10 13 19 11 31 34 33 31 32 34 34 35 36 34 29 26 28 36 49 41 42 44 36 43 45 40 41 38 32 9 8 8 7 7 11 12 17
Wind_Direction
334 331 327 325 321 316 314 309 300 294 286 280 275 265 259 265 266 243 219 202 200 169 247 216 177 186 184 199 197 228 257 284 338 358 299 84 48 52 60 85 66 44 104 115 122
333 330 326 323 320 316 312 308 302 293 287 285 278 273 268 270 258 239 214 197 207 172 186 174 170 175 191 204 205 202 310 273 251 219 151 273 50 66 63 65 66 85 95 115 124
330 326 324 321 318 314 312 308 302 295 288 285 288 281 280 285 268 239 286 192 179 178 172 175 169 176 193 200 206 213 313 116 216 240 160 9 50 90 71 67 89 104 114 123 127
330 326 321 318 315 311 306 304 301 296 294 290 293 299 299 303 317 326 314 131 169 165 173 176 175 179 197 205 202 209 58 114 240 221 310 337 228 326 92 94 98 112 122 126 129
330 326 322 318 314 310 306 304 298 294 290 311 321 318 314 307 268 273 333 30 159 178 176 178 178 177 189 202 198 205 160 151 213 197 65 111 110 93 98 105 98 117 128 130 132
332 328 324 320 317 313 309 305 303 301 305 320 331 331 310 293 270 195 326 345 164 178 190 184 186 183 230 205 209 203 207 225 200 329 105 86 93 81 120 101 104 125 135 138 141
332 329 325 322 318 314 309 309 308 308 308 311 322 319 297 261 302 313 208 266 172 173 198 194 204 219 190 197 217 224 253 269 249 295 317 349 127 58 92 110 110 121 135 143 143
329 328 325 322 319 314 310 311 309 311 311 310 315 310 297 305 202 243 283 202 202 190 179 244 248 254 254 258 245 222 252 234 190 237 291 344 305 110 124 141 114 121 134 143 148
332 331 327 323 317 314 312 305 309 314 318 320 317 299 294 310 234 217 230 195 211 228 197 237 246 243 253 211 234 202 210 195 253 198 201 159 243 136 143 140 128 127 136 142 149
336 335 333 329 323 319 317 305 328 322 318 311 295 297 289 292 291 218 200 228 205 234 242 225 234 227 235 207 195 255 238 255 192 185 179 173 167 107 154 156 147 137 139 146 152
337 335 332 331 325 323 331 339 325 316 308 288 287 281 289 296 292 262 214 218 219 215 202 207 228 202 195 196 209 247 258 255 227 196 195 195 174 164 144 163 164 138 148 148 157
341 339 334 332 328 324 328 334 328 314 292 290 279 268 267 264 276 266 209 212 208 209 212 223 202 201 211 244 240 241 247 256 235 205 199 186 183 190 174 167 178 162 171 148 156
347 345 342 337 332 339 339 330 326 317 297 285 278 270 260 261 262 257 211 205 213 216 212 210 249 240 236 235 240 231 248 248 254 252 260 249 218 194 218 196 187 167 162 155 162
352 349 345 344 348 341 337 335 329 324 301 295 285 292 251 253 256 253 221 213 235 221 218 235 236 222 228 216 211 205 218 247 246 248 240 223 247 196 194 207 184 192 173 164 163
351 343 314 350 350 347 341 341 335 321 289 327 307 306 287 237 283 236 237 222 229 235 216 216 237 228 218 195 192 201 242 248 250 256 254 254 257 258 194 186 175 178 173 182 166
316 309 346 6 5 3 359 1 340 300 276 311 314 302 286 257 251 263 232 234 240 245 244 241 243 244 245 247 233 235 242 247 251 253 246 246 255 227 204 188 191 177 176 171 174
315 308 357 3 3 351 353 5 327 297 291 302 297 295 284 271 257 249 237 230 227 234 237 239 238 243 239 243 238 236 237 241 225 215 231 210 251 250 194 188 191 182 179 177 173
317 307 3 4 0 352 353 359 321 321 305 299 293 287 274 274 269 252 244 237 232 236 240 236 234 232 238 234 227 195 194 215 201 230 237 226 250 210 220 234 235 190 186 180 174
347 1 358 23 359 357 353 348 337 345 338 302 288 276 272 285 275 272 245 239 234 232 234 236 236 237 234 238 234 228 198 199 215 236 245 241 207 234 221 225 231 235 199 186 175
1 2 355 7 358 357 347 339 343 342 343 317 280 274 267 273 268 272 259 237 239 236 235 236 244 236 236 238 237 223 235 233 235 238 238 244 224 201 211 241 238 243 242 192 176
6 5 12 1 354 347 338 339 332 333 337 327 290 269 268 268 263 259 245 263 270 243 236 235 238 237 235 229 231 231 231 235 233 232 232 247 254 193 192 202 239 217 229 227 184
6 359 357 6 352 356 343 339 338 334 336 334 302 275 265 268 259 254 250 251 273 264 242 236 233 235 237 235 236 235 234 233 238 237 231 241 251 297 270 189 207 245 196 236 236
0 357 12 358 352 346 337 333 336 338 336 332 291 284 270 261 255 247 258 266 268 263 249 243 228 227 233 239 227 228 232 231 238 237 225 234 252 296 295 185 200 179 242 204 237
2 357 5 11 4 351 342 341 342 345 350 311 276 289 268 256 256 248 257 264 269 265 257 243 232 229 227 231 231 225 232 233 229 236 233 227 258 275 272 258 245 228 231 238 232
10 21 21 12 14 355 352 348 343 348 360 321 278 289 273 254 262 249 255 268 266 270 259 241 233 233 235 234 240 230 234 233 232 235 234 236 241 266 267 262 259 237 237 232 224
14 15 15 360 1 7 359 6 357 356 341 291 284 286 269 259 258 252 258 254 249 263 258 253 232 235 234 235 244 242 232 234 235 234 239 235 244 222 252 250 233 221 236 240 241
19 14 12 12 10 10 14 3 347 355 359 347 273 277 272 265 265 258 256 253 249 253 253 249 241 236 228 234 237 239 235 231 233 234 234 235 239 188 209 220 216 235 243 254 256